ロニオス-パンスターズ彗星

P/2022 M1 ( LONEOS-PanSTARRS )

English version
Home page
Updated on December 11, 2022

---------------------------------------------------------------------

・ プロフィール

発見日 2022年6月29日
発見光度 21.1等
発見者 Pan-STARRS 2 telescope (Haleakala)

・ 写真集

・ 軌道要素

Epoch 2022 Aug. 9.0 TT = JDT 2459800.5                                          
T 2022 Aug. 2.37972 TT                                  Rudenko                 
q   2.0614341            (2000.0)            P               Q                  
n   0.09115717     Peri.    4.46854     +0.84200902     +0.53439720             
a   4.8896244      Node   322.92183     -0.49866228     +0.71885398             
e   0.5784064      Incl.    7.02718     -0.20580754     +0.44459935             
P  10.8                                                                         
>From 160 observations 2022 May 31-Nov. 8, mean residual 0".4.                   

・ 光度変化

        m1 = 1.0 + 5 logΔ + 55 log r(t - 40)

---------------------------------------------------------------------

軌道要素はM.P.E.C. 2022-V125に掲載されたものです。
光度グラフはComet for Windowsで作成したものです。

---------------------------------------------------------------------

Copyright(C) Seiichi Yoshida (comet@aerith.net). All rights reserved.